AAL1080 KATL-KDFW

Flight info

Callsign AAL1080
Flight time 2h 6m
Altitude 32000
Route KAJIN2 STNGA MLU YUYUN BEREE3
Aircraft B738/M-SDE2E3FGHIRWXY/LB1

Departure

Time 2026-05-08 00:23
Airport Hartsfield Jackson Atlanta International Airport (KATL)

Arrival

Time 2026-05-08 02:30
Airport Dallas Fort Worth International Airport (KDFW)
Time Latitude Longitude Altitude Speed Heading
2026-05-07 23:58 33.64225 -84.44191 1005 ft 0 kts 271°
2026-05-08 00:08 33.64225 -84.44172 1005 ft 4 kts 270°
2026-05-08 00:08 33.64222 -84.44141 1005 ft 4 kts 294°
2026-05-08 00:09 33.64207 -84.44118 1005 ft 4 kts 342°
2026-05-08 00:09 33.64196 -84.44115 1005 ft 0 kts 360°
2026-05-08 00:11 33.64202 -84.44115 1005 ft 4 kts 360°
2026-05-08 00:12 33.64248 -84.44116 1005 ft 9 kts 359°
2026-05-08 00:12 33.64317 -84.44116 1005 ft 10 kts 359°
2026-05-08 00:12 33.64388 -84.44117 1005 ft 10 kts 359°
2026-05-08 00:12 33.64417 -84.44095 1005 ft 5 kts 80°
2026-05-08 00:13 33.64423 -84.44036 1005 ft 12 kts 85°
2026-05-08 00:13 33.64434 -84.43927 1005 ft 13 kts 82°
2026-05-08 00:13 33.64448 -84.43811 1005 ft 16 kts 82°
2026-05-08 00:13 33.64458 -84.43665 1005 ft 18 kts 88°
2026-05-08 00:14 33.64458 -84.43515 1005 ft 18 kts 90°
2026-05-08 00:14 33.64458 -84.43363 1005 ft 18 kts 90°
2026-05-08 00:14 33.64459 -84.43215 1006 ft 17 kts 91°
2026-05-08 00:14 33.64459 -84.43058 1006 ft 19 kts 89°
2026-05-08 00:15 33.64459 -84.42898 1005 ft 19 kts 90°
2026-05-08 00:15 33.64465 -84.42743 1005 ft 18 kts 85°
2026-05-08 00:15 33.64468 -84.42595 1005 ft 18 kts 88°
2026-05-08 00:15 33.64469 -84.42453 1005 ft 17 kts 89°
2026-05-08 00:16 33.64470 -84.42314 1005 ft 16 kts 89°
2026-05-08 00:16 33.64506 -84.42190 1005 ft 16 kts 59°
2026-05-08 00:16 33.64543 -84.42055 1005 ft 18 kts 88°
2026-05-08 00:16 33.64542 -84.41909 1005 ft 17 kts 90°
2026-05-08 00:17 33.64542 -84.41764 1005 ft 17 kts 89°
2026-05-08 00:17 33.64543 -84.41623 1006 ft 17 kts 90°
2026-05-08 00:17 33.64542 -84.41461 1006 ft 21 kts 90°
2026-05-08 00:17 33.64542 -84.41285 1006 ft 21 kts 90°
2026-05-08 00:18 33.64541 -84.41112 1006 ft 20 kts 91°
2026-05-08 00:18 33.64542 -84.40943 1005 ft 20 kts 90°
2026-05-08 00:18 33.64560 -84.40784 1005 ft 19 kts 71°
2026-05-08 00:18 33.64569 -84.40638 1004 ft 13 kts 89°
2026-05-08 00:19 33.64578 -84.40590 1004 ft 2 kts 58°
2026-05-08 00:19 33.64582 -84.40584 1004 ft 0 kts 51°
2026-05-08 00:19 33.64583 -84.40584 1004 ft 0 kts 51°
2026-05-08 00:19 33.64583 -84.40583 1004 ft 0 kts 51°
2026-05-08 00:22 33.64595 -84.40574 1004 ft 4 kts 22°
2026-05-08 00:22 33.64643 -84.40574 1003 ft 11 kts 354°
2026-05-08 00:22 33.64681 -84.40629 1003 ft 2 kts 269°
2026-05-08 00:22 33.64681 -84.40660 1003 ft 6 kts 268°
2026-05-08 00:23 33.64677 -84.40895 1005 ft 61 kts 270°
2026-05-08 00:23 33.64678 -84.41683 1006 ft 125 kts 270°
2026-05-08 00:23 33.64691 -84.42922 1113 ft 163 kts 272°
2026-05-08 00:23 33.64720 -84.44296 1795 ft 164 kts 272°
2026-05-08 00:24 33.64703 -84.45675 2496 ft 167 kts 270°
2026-05-08 00:24 33.64829 -84.47067 3086 ft 174 kts 285°
2026-05-08 00:24 33.65129 -84.48556 3420 ft 194 kts 284°
2026-05-08 00:24 33.65464 -84.50204 3575 ft 213 kts 284°
2026-05-08 00:25 33.65813 -84.51985 3930 ft 224 kts 283°
2026-05-08 00:25 33.66046 -84.53202 4241 ft 228 kts 283°
2026-05-08 00:25 33.66409 -84.55137 4563 ft 245 kts 283°
2026-05-08 00:25 33.66787 -84.57154 5222 ft 250 kts 283°
2026-05-08 00:26 33.67162 -84.59197 6024 ft 249 kts 282°
2026-05-08 00:26 33.67512 -84.61249 6768 ft 253 kts 282°
2026-05-08 00:26 33.67862 -84.63333 7516 ft 256 kts 281°
2026-05-08 00:26 33.68215 -84.65432 8336 ft 258 kts 281°
2026-05-08 00:27 33.68571 -84.67547 9117 ft 260 kts 281°
2026-05-08 00:27 33.68931 -84.69676 9919 ft 260 kts 281°
2026-05-08 00:27 33.69295 -84.71826 10573 ft 270 kts 281°
2026-05-08 00:27 33.69679 -84.74125 10782 ft 292 kts 279°
2026-05-08 00:28 33.69685 -84.76646 10941 ft 314 kts 262°
2026-05-08 00:28 33.69016 -84.79231 11234 ft 332 kts 252°
2026-05-08 00:28 33.68175 -84.81826 11932 ft 332 kts 251°
2026-05-08 00:28 33.67322 -84.84407 12728 ft 332 kts 252°
2026-05-08 00:29 33.66485 -84.86948 13475 ft 332 kts 252°
2026-05-08 00:29 33.65628 -84.89562 14224 ft 333 kts 252°
2026-05-08 00:29 33.64784 -84.92151 14973 ft 333 kts 252°
2026-05-08 00:29 33.63942 -84.94747 15705 ft 334 kts 252°
2026-05-08 00:30 33.63112 -84.97310 16433 ft 334 kts 252°
2026-05-08 00:30 33.62272 -84.99904 17133 ft 334 kts 252°
2026-05-08 00:30 33.61430 -85.02510 17742 ft 336 kts 252°
2026-05-08 00:30 33.60583 -85.05133 18361 ft 337 kts 252°
2026-05-08 00:31 33.59733 -85.07760 18906 ft 340 kts 252°
2026-05-08 00:31 33.58873 -85.10417 19420 ft 343 kts 252°
2026-05-08 00:31 33.58004 -85.13097 19896 ft 346 kts 252°
2026-05-08 00:31 33.57128 -85.15800 20353 ft 350 kts 252°
2026-05-08 00:32 33.56244 -85.18519 20848 ft 351 kts 252°
2026-05-08 00:32 33.55355 -85.21254 21312 ft 354 kts 252°
2026-05-08 00:32 33.54567 -85.24052 21687 ft 355 kts 258°
2026-05-08 00:32 33.54000 -85.26943 22087 ft 358 kts 259°
2026-05-08 00:33 33.53481 -85.29876 22507 ft 359 kts 260°
2026-05-08 00:33 33.52973 -85.32811 22905 ft 362 kts 260°
2026-05-08 00:33 33.52454 -85.35778 23270 ft 364 kts 259°
2026-05-08 00:33 33.51923 -85.38758 23612 ft 367 kts 259°
2026-05-08 00:34 33.51382 -85.41756 23977 ft 369 kts 259°
2026-05-08 00:34 33.50832 -85.44769 24293 ft 371 kts 259°
2026-05-08 00:34 33.50274 -85.47794 24657 ft 372 kts 259°
2026-05-08 00:34 33.49711 -85.50831 24985 ft 374 kts 259°
2026-05-08 00:35 33.49145 -85.53877 25318 ft 375 kts 259°
2026-05-08 00:35 33.48576 -85.56926 25661 ft 376 kts 259°
2026-05-08 00:35 33.48004 -85.59990 25964 ft 378 kts 259°
2026-05-08 00:35 33.47428 -85.63068 26269 ft 379 kts 259°
2026-05-08 00:36 33.46852 -85.66140 26606 ft 379 kts 259°
2026-05-08 00:36 33.46272 -85.69227 26893 ft 380 kts 259°
2026-05-08 00:36 33.45691 -85.72316 27254 ft 380 kts 259°
2026-05-08 00:36 33.45112 -85.75387 27698 ft 377 kts 259°
2026-05-08 00:37 33.44546 -85.78389 28177 ft 373 kts 258°
2026-05-08 00:37 33.43974 -85.81418 28565 ft 372 kts 258°
2026-05-08 00:37 33.43403 -85.84429 28997 ft 369 kts 258°
2026-05-08 00:38 33.42274 -85.90393 29914 ft 364 kts 258°
2026-05-08 00:38 33.41716 -85.93333 30381 ft 362 kts 258°
2026-05-08 00:38 33.41161 -85.96250 30782 ft 360 kts 258°
2026-05-08 00:38 33.40604 -85.99178 31196 ft 359 kts 258°
2026-05-08 00:39 33.40047 -86.02096 31525 ft 359 kts 258°
2026-05-08 00:39 33.39491 -86.05012 31870 ft 359 kts 258°
2026-05-08 00:39 33.38936 -86.07911 32023 ft 358 kts 258°
2026-05-08 00:40 33.37826 -86.13706 32051 ft 358 kts 258°
2026-05-08 00:40 33.36709 -86.19524 32064 ft 359 kts 258°
2026-05-08 00:41 33.35585 -86.25362 32060 ft 360 kts 258°
2026-05-08 00:41 33.34458 -86.31202 32062 ft 361 kts 258°
2026-05-08 00:42 33.33330 -86.37027 32061 ft 362 kts 258°
2026-05-08 00:42 33.32191 -86.42887 32059 ft 362 kts 258°
2026-05-08 00:43 33.31049 -86.48754 32060 ft 362 kts 258°
2026-05-08 00:43 33.29907 -86.54607 32053 ft 362 kts 258°
2026-05-08 00:44 33.28766 -86.60438 32054 ft 362 kts 258°
2026-05-08 00:44 33.27613 -86.66318 32041 ft 361 kts 258°
2026-05-08 00:45 33.26465 -86.72154 32041 ft 361 kts 258°
2026-05-08 00:45 33.25314 -86.77991 32041 ft 361 kts 258°
2026-05-08 00:46 33.24160 -86.83823 32037 ft 361 kts 258°
2026-05-08 00:46 33.23005 -86.89648 32039 ft 360 kts 258°
2026-05-08 00:47 33.21848 -86.95468 32052 ft 360 kts 258°
2026-05-08 00:47 33.20686 -87.01300 32042 ft 361 kts 258°
2026-05-08 00:48 33.19522 -87.07124 32049 ft 361 kts 258°
2026-05-08 00:48 33.18353 -87.12956 32041 ft 362 kts 258°
2026-05-08 00:49 33.17187 -87.18762 32048 ft 362 kts 258°
2026-05-08 00:49 33.16012 -87.24595 32052 ft 362 kts 257°
2026-05-08 00:50 33.14835 -87.30427 32053 ft 362 kts 257°
2026-05-08 00:50 33.13652 -87.36273 32053 ft 362 kts 257°
2026-05-08 00:51 33.12467 -87.42118 32052 ft 363 kts 257°
2026-05-08 00:51 33.11432 -87.48010 32047 ft 363 kts 262°
2026-05-08 00:52 33.10765 -87.53974 32044 ft 363 kts 263°
2026-05-08 00:52 33.10126 -87.59953 32041 ft 363 kts 262°
2026-05-08 00:53 33.09469 -87.65919 32043 ft 363 kts 262°
2026-05-08 00:53 33.08802 -87.71832 32043 ft 363 kts 262°
2026-05-08 00:54 33.08116 -87.77835 32042 ft 363 kts 262°
2026-05-08 00:54 33.07431 -87.83792 32047 ft 362 kts 262°
2026-05-08 00:55 33.06744 -87.89741 32053 ft 362 kts 262°
2026-05-08 00:55 33.06054 -87.95684 32052 ft 362 kts 262°
2026-05-08 00:56 33.05365 -88.01595 32051 ft 362 kts 262°
2026-05-08 00:56 33.04671 -88.07532 32053 ft 362 kts 262°
2026-05-08 00:57 33.03972 -88.13486 32053 ft 362 kts 262°
2026-05-08 00:57 33.03270 -88.19425 32053 ft 363 kts 261°
2026-05-08 00:58 33.02565 -88.25382 32051 ft 363 kts 261°
2026-05-08 00:58 33.01856 -88.31343 32055 ft 363 kts 261°
2026-05-08 00:59 33.01143 -88.37305 32052 ft 364 kts 261°
2026-05-08 00:59 33.00427 -88.43272 32063 ft 364 kts 261°
2026-05-08 01:00 32.99709 -88.49239 32064 ft 364 kts 261°
2026-05-08 01:00 32.98987 -88.55205 32061 ft 364 kts 261°
2026-05-08 01:01 32.98261 -88.61171 32068 ft 363 kts 261°
2026-05-08 01:01 32.97540 -88.67086 32070 ft 363 kts 261°
2026-05-08 01:02 32.96807 -88.73076 32073 ft 363 kts 261°
2026-05-08 01:02 32.96076 -88.79018 32074 ft 363 kts 261°
2026-05-08 01:03 32.95348 -88.84922 32073 ft 363 kts 261°
2026-05-08 01:03 32.94611 -88.90863 32069 ft 363 kts 261°
2026-05-08 01:04 32.93871 -88.96815 32074 ft 363 kts 261°
2026-05-08 01:04 32.93128 -89.02764 32071 ft 363 kts 261°
2026-05-08 01:05 32.92383 -89.08704 32072 ft 363 kts 261°
2026-05-08 01:05 32.91634 -89.14657 32068 ft 363 kts 261°
2026-05-08 01:06 32.90884 -89.20590 32070 ft 363 kts 261°
2026-05-08 01:06 32.90129 -89.26537 32071 ft 363 kts 261°
2026-05-08 01:07 32.89372 -89.32486 32071 ft 364 kts 261°
2026-05-08 01:07 32.88610 -89.38442 32071 ft 364 kts 261°
2026-05-08 01:08 32.87852 -89.44342 32072 ft 363 kts 261°
2026-05-08 01:08 32.87082 -89.50327 32072 ft 363 kts 261°
2026-05-08 01:09 32.86318 -89.56228 32069 ft 364 kts 261°
2026-05-08 01:09 32.85546 -89.62171 32071 ft 364 kts 261°
2026-05-08 01:10 32.84771 -89.68115 32069 ft 364 kts 261°
2026-05-08 01:10 32.83991 -89.74078 32071 ft 364 kts 260°
2026-05-08 01:11 32.83210 -89.80026 32062 ft 364 kts 260°
2026-05-08 01:11 32.82426 -89.85973 32062 ft 364 kts 260°
2026-05-08 01:12 32.81638 -89.91922 32063 ft 364 kts 260°
2026-05-08 01:12 32.80849 -89.97864 32060 ft 364 kts 260°
2026-05-08 01:13 32.80056 -90.03806 32059 ft 364 kts 260°
2026-05-08 01:13 32.79260 -90.09749 32063 ft 364 kts 260°
2026-05-08 01:14 32.78463 -90.15690 32061 ft 364 kts 260°
2026-05-08 01:14 32.77661 -90.21634 32060 ft 364 kts 260°
2026-05-08 01:15 32.76858 -90.27572 32053 ft 364 kts 260°
2026-05-08 01:15 32.76051 -90.33513 32052 ft 365 kts 260°
2026-05-08 01:16 32.75240 -90.39461 32053 ft 365 kts 259°
2026-05-08 01:16 32.74427 -90.45410 32057 ft 365 kts 259°
2026-05-08 01:17 32.73611 -90.51349 32052 ft 365 kts 259°
2026-05-08 01:17 32.72796 -90.57267 32056 ft 365 kts 259°
2026-05-08 01:18 32.72109 -90.62236 32062 ft 364 kts 259°
2026-05-08 01:18 32.71151 -90.69136 32061 ft 364 kts 259°
2026-05-08 01:19 32.70460 -90.74102 32062 ft 364 kts 259°
2026-05-08 01:19 32.69632 -90.80022 32063 ft 363 kts 259°
2026-05-08 01:20 32.68803 -90.85942 32060 ft 363 kts 259°
2026-05-08 01:20 32.67972 -90.91843 32062 ft 363 kts 259°
2026-05-08 01:21 32.67140 -90.97745 32058 ft 363 kts 259°
2026-05-08 01:21 32.66308 -91.03613 32059 ft 363 kts 259°
2026-05-08 01:22 32.65466 -91.09527 32062 ft 363 kts 259°
2026-05-08 01:22 32.64623 -91.15437 32066 ft 363 kts 259°
2026-05-08 01:23 32.63779 -91.21334 32073 ft 363 kts 259°
2026-05-08 01:23 32.62928 -91.27256 32071 ft 364 kts 259°
2026-05-08 01:24 32.62074 -91.33181 32072 ft 364 kts 259°
2026-05-08 01:24 32.61217 -91.39106 32069 ft 365 kts 259°
2026-05-08 01:25 32.60357 -91.45036 32072 ft 365 kts 259°
2026-05-08 01:25 32.59491 -91.50980 32071 ft 365 kts 259°
2026-05-08 01:26 32.58622 -91.56921 32070 ft 366 kts 259°
2026-05-08 01:26 32.57751 -91.62861 32080 ft 366 kts 259°
2026-05-08 01:27 32.56875 -91.68812 32081 ft 366 kts 259°
2026-05-08 01:27 32.55998 -91.74759 32080 ft 366 kts 259°
2026-05-08 01:28 32.55117 -91.80705 32081 ft 367 kts 259°
2026-05-08 01:28 32.54232 -91.86659 32080 ft 367 kts 259°
2026-05-08 01:29 32.53350 -91.92575 32081 ft 367 kts 259°
2026-05-08 01:29 32.52461 -91.98531 32081 ft 367 kts 258°
2026-05-08 01:30 32.51615 -92.04482 32076 ft 367 kts 262°
2026-05-08 01:30 32.51165 -92.10519 32079 ft 368 kts 263°
2026-05-08 01:31 32.50751 -92.16568 32080 ft 368 kts 263°
2026-05-08 01:31 32.50324 -92.22617 32081 ft 368 kts 263°
2026-05-08 01:32 32.49887 -92.28663 32073 ft 369 kts 263°
2026-05-08 01:32 32.49444 -92.34713 32074 ft 368 kts 263°
2026-05-08 01:33 32.48999 -92.40745 32066 ft 368 kts 263°
2026-05-08 01:33 32.48550 -92.46775 32063 ft 367 kts 263°
2026-05-08 01:34 32.48098 -92.52801 32065 ft 367 kts 263°
2026-05-08 01:34 32.47644 -92.58820 32059 ft 367 kts 263°
2026-05-08 01:35 32.47189 -92.64823 32062 ft 366 kts 263°
2026-05-08 01:35 32.46731 -92.70829 32060 ft 366 kts 263°
2026-05-08 01:36 32.46271 -92.76828 32063 ft 366 kts 263°
2026-05-08 01:36 32.45808 -92.82824 32059 ft 365 kts 262°
2026-05-08 01:37 32.45343 -92.88804 32063 ft 365 kts 262°
2026-05-08 01:37 32.44881 -92.94761 32060 ft 366 kts 263°
2026-05-08 01:38 32.44420 -93.00795 32059 ft 366 kts 263°
2026-05-08 01:38 32.43964 -93.06752 32061 ft 366 kts 262°
2026-05-08 01:39 32.43501 -93.12754 32067 ft 366 kts 263°
2026-05-08 01:39 32.43035 -93.18754 32071 ft 366 kts 262°
2026-05-08 01:40 32.42564 -93.24757 32071 ft 367 kts 262°
2026-05-08 01:40 32.42090 -93.30775 32075 ft 367 kts 262°
2026-05-08 01:41 32.41613 -93.36797 32070 ft 368 kts 262°
2026-05-08 01:41 32.41132 -93.42833 32075 ft 369 kts 262°
2026-05-08 01:42 32.40651 -93.48829 32071 ft 369 kts 262°
2026-05-08 01:42 32.40161 -93.54908 32073 ft 369 kts 262°
2026-05-08 01:43 32.39670 -93.60959 32064 ft 369 kts 262°
2026-05-08 01:43 32.39176 -93.67013 32061 ft 369 kts 262°
2026-05-08 01:44 32.38680 -93.73058 32063 ft 369 kts 262°
2026-05-08 01:44 32.38180 -93.79110 32061 ft 370 kts 262°
2026-05-08 01:45 32.37679 -93.85128 32059 ft 370 kts 262°
2026-05-08 01:45 32.37174 -93.91182 32062 ft 370 kts 262°
2026-05-08 01:46 32.36664 -93.97242 32063 ft 370 kts 262°
2026-05-08 01:46 32.36152 -94.03297 32063 ft 370 kts 262°
2026-05-08 01:47 32.35636 -94.09368 32062 ft 371 kts 262°
2026-05-08 01:47 32.35118 -94.15433 32067 ft 371 kts 262°
2026-05-08 01:48 32.34331 -94.24556 32060 ft 371 kts 262°
2026-05-08 01:48 32.33804 -94.30625 32061 ft 371 kts 262°
2026-05-08 01:49 32.33275 -94.36696 32061 ft 371 kts 262°
2026-05-08 01:49 32.32744 -94.42745 32060 ft 370 kts 262°
2026-05-08 01:50 32.32211 -94.48787 32063 ft 369 kts 262°
2026-05-08 01:50 32.31675 -94.54827 32060 ft 369 kts 262°
2026-05-08 01:51 32.31141 -94.60810 32065 ft 368 kts 262°
2026-05-08 01:51 32.30603 -94.66818 32063 ft 368 kts 262°
2026-05-08 01:52 32.30061 -94.72832 32066 ft 367 kts 262°
2026-05-08 01:52 32.29515 -94.78839 32064 ft 367 kts 262°
2026-05-08 01:53 32.28970 -94.84836 32062 ft 367 kts 262°
2026-05-08 01:53 32.28423 -94.90814 32060 ft 368 kts 261°
2026-05-08 01:54 32.27872 -94.96809 32063 ft 368 kts 261°
2026-05-08 01:54 32.27512 -95.00702 32061 ft 368 kts 261°
2026-05-08 01:57 32.27216 -95.03634 32063 ft 368 kts 261°
2026-05-08 01:58 32.26570 -95.09597 32060 ft 369 kts 260°
2026-05-08 01:58 32.25917 -95.15641 32059 ft 369 kts 261°
2026-05-08 01:59 32.25277 -95.21599 31852 ft 366 kts 261°
2026-05-08 01:59 32.25135 -95.24587 31449 ft 362 kts 266°
2026-05-08 01:59 32.25206 -95.27538 30958 ft 358 kts 268°
2026-05-08 02:00 32.25321 -95.30460 30480 ft 354 kts 268°
2026-05-08 02:00 32.25434 -95.33353 30002 ft 350 kts 268°
2026-05-08 02:00 32.25532 -95.36218 29518 ft 346 kts 268°
2026-05-08 02:00 32.25616 -95.39043 29031 ft 343 kts 268°
2026-05-08 02:01 32.25690 -95.41791 28556 ft 340 kts 268°
2026-05-08 02:01 32.25764 -95.44566 28080 ft 337 kts 268°
2026-05-08 02:01 32.25835 -95.47325 27602 ft 334 kts 269°
2026-05-08 02:01 32.25904 -95.50052 27121 ft 331 kts 269°
2026-05-08 02:02 32.25972 -95.52764 26647 ft 329 kts 269°
2026-05-08 02:02 32.26038 -95.55467 26127 ft 328 kts 269°
2026-05-08 02:02 32.26103 -95.58142 25668 ft 326 kts 270°
2026-05-08 02:02 32.26166 -95.60808 25214 ft 323 kts 270°
2026-05-08 02:03 32.26229 -95.63461 24762 ft 321 kts 270°
2026-05-08 02:03 32.26292 -95.66089 24317 ft 319 kts 271°
2026-05-08 02:03 32.26353 -95.68697 23870 ft 317 kts 271°
2026-05-08 02:03 32.26414 -95.71288 23422 ft 315 kts 271°
2026-05-08 02:04 32.26474 -95.73871 22985 ft 313 kts 271°
2026-05-08 02:04 32.26533 -95.76435 22612 ft 311 kts 271°
2026-05-08 02:04 32.26591 -95.78982 22248 ft 320 kts 271°
2026-05-08 02:04 32.26651 -95.81648 21859 ft 328 kts 271°
2026-05-08 02:05 32.26712 -95.84362 21457 ft 332 kts 271°
2026-05-08 02:05 32.26774 -95.87082 21047 ft 330 kts 270°
2026-05-08 02:05 32.26833 -95.89780 20645 ft 327 kts 270°
2026-05-08 02:05 32.26892 -95.92456 20256 ft 325 kts 270°
2026-05-08 02:06 32.26951 -95.95114 19864 ft 323 kts 270°
2026-05-08 02:06 32.27008 -95.97752 19479 ft 321 kts 270°
2026-05-08 02:06 32.27064 -96.00382 19092 ft 320 kts 270°
2026-05-08 02:06 32.27120 -96.03000 18708 ft 319 kts 270°
2026-05-08 02:07 32.27175 -96.05614 18324 ft 318 kts 270°
2026-05-08 02:07 32.27228 -96.08228 17945 ft 317 kts 269°
2026-05-08 02:07 32.27282 -96.10831 17552 ft 317 kts 269°
2026-05-08 02:07 32.27334 -96.13434 17164 ft 317 kts 270°
2026-05-08 02:08 32.27387 -96.16036 16775 ft 317 kts 270°
2026-05-08 02:08 32.27439 -96.18638 16394 ft 316 kts 270°
2026-05-08 02:08 32.27491 -96.21226 16015 ft 315 kts 270°
2026-05-08 02:08 32.27541 -96.23798 15638 ft 314 kts 270°
2026-05-08 02:09 32.27591 -96.26372 15261 ft 312 kts 270°
2026-05-08 02:09 32.27640 -96.28917 14887 ft 306 kts 270°
2026-05-08 02:09 32.27855 -96.31374 14499 ft 307 kts 283°
2026-05-08 02:09 32.28724 -96.33717 14161 ft 311 kts 296°
2026-05-08 02:10 32.30062 -96.35709 13785 ft 315 kts 308°
2026-05-08 02:10 32.31564 -96.37577 13403 ft 312 kts 309°
2026-05-08 02:10 32.33158 -96.39306 13019 ft 311 kts 314°
2026-05-08 02:10 32.34823 -96.40916 12651 ft 307 kts 315°
2026-05-08 02:11 32.35916 -96.41975 12400 ft 305 kts 314°
2026-05-08 02:11 32.37533 -96.43561 12032 ft 300 kts 314°
2026-05-08 02:11 32.38932 -96.45329 11656 ft 281 kts 298°
2026-05-08 02:11 32.39862 -96.47252 11343 ft 268 kts 295°
2026-05-08 02:12 32.40747 -96.49168 11035 ft 266 kts 295°
2026-05-08 02:12 32.41639 -96.51110 10730 ft 271 kts 295°
2026-05-08 02:12 32.42544 -96.53077 10406 ft 274 kts 295°
2026-05-08 02:12 32.43461 -96.55053 10089 ft 273 kts 296°
2026-05-08 02:13 32.44380 -96.57012 9748 ft 272 kts 296°
2026-05-08 02:13 32.45297 -96.58963 9411 ft 271 kts 296°
2026-05-08 02:13 32.46213 -96.60917 9078 ft 271 kts 297°
2026-05-08 02:13 32.47127 -96.62868 8749 ft 271 kts 297°
2026-05-08 02:14 32.48038 -96.64812 8426 ft 270 kts 297°
2026-05-08 02:14 32.48940 -96.66764 8095 ft 269 kts 294°
2026-05-08 02:14 32.49376 -96.68862 7755 ft 268 kts 273°
2026-05-08 02:14 32.49478 -96.71092 7409 ft 268 kts 273°
2026-05-08 02:15 32.49590 -96.73273 7069 ft 268 kts 273°
2026-05-08 02:15 32.49714 -96.75507 6711 ft 269 kts 274°
2026-05-08 02:15 32.49838 -96.77689 6367 ft 270 kts 274°
2026-05-08 02:15 32.49966 -96.79940 6040 ft 269 kts 274°
2026-05-08 02:16 32.50426 -96.82022 5896 ft 260 kts 301°
2026-05-08 02:16 32.51637 -96.83513 5803 ft 253 kts 326°
2026-05-08 02:16 32.53234 -96.84415 5698 ft 252 kts 342°
2026-05-08 02:16 32.54888 -96.85012 5590 ft 253 kts 343°
2026-05-08 02:17 32.56633 -96.85450 5463 ft 254 kts 356°
2026-05-08 02:17 32.58366 -96.85559 5363 ft 254 kts 357°
2026-05-08 02:17 32.60143 -96.85674 5252 ft 255 kts 356°
2026-05-08 02:17 32.61914 -96.85791 5140 ft 255 kts 356°
2026-05-08 02:18 32.63687 -96.85911 5026 ft 255 kts 356°
2026-05-08 02:18 32.65459 -96.86032 4916 ft 254 kts 356°
2026-05-08 02:18 32.67218 -96.86152 4815 ft 252 kts 356°
2026-05-08 02:18 32.68965 -96.86275 4699 ft 251 kts 356°
2026-05-08 02:19 32.70708 -96.86398 4595 ft 249 kts 356°
2026-05-08 02:19 32.72434 -96.86521 4500 ft 249 kts 356°
2026-05-08 02:19 32.74155 -96.86646 4393 ft 247 kts 356°
2026-05-08 02:19 32.75870 -96.86775 4294 ft 246 kts 356°
2026-05-08 02:20 32.77578 -96.86904 4195 ft 245 kts 356°
2026-05-08 02:20 32.79293 -96.87034 4083 ft 248 kts 356°
2026-05-08 02:20 32.81009 -96.87166 4028 ft 246 kts 356°
2026-05-08 02:20 32.82715 -96.87296 4022 ft 245 kts 356°
2026-05-08 02:21 32.84410 -96.87426 4018 ft 243 kts 356°
2026-05-08 02:21 32.86067 -96.87552 3996 ft 233 kts 356°
2026-05-08 02:21 32.87639 -96.87674 3995 ft 220 kts 356°
2026-05-08 02:21 32.89123 -96.87788 4002 ft 210 kts 356°
2026-05-08 02:22 32.90575 -96.87903 4023 ft 209 kts 357°
2026-05-08 02:22 32.92039 -96.88016 3982 ft 216 kts 356°
2026-05-08 02:22 32.93623 -96.88138 3641 ft 231 kts 356°
2026-05-08 02:22 32.95218 -96.88262 3508 ft 225 kts 356°
2026-05-08 02:23 32.96740 -96.88381 3482 ft 213 kts 356°
2026-05-08 02:23 32.98221 -96.88498 3496 ft 217 kts 356°
2026-05-08 02:23 32.99774 -96.88620 3517 ft 230 kts 356°
2026-05-08 02:23 33.01395 -96.88745 3538 ft 236 kts 356°
2026-05-08 02:24 33.03036 -96.88870 3546 ft 235 kts 356°
2026-05-08 02:24 33.04641 -96.89272 3326 ft 239 kts 333°
2026-05-08 02:24 33.05842 -96.90563 3109 ft 230 kts 301°
2026-05-08 02:24 33.06274 -96.92308 3033 ft 212 kts 277°
2026-05-08 02:25 33.06409 -96.94008 3012 ft 203 kts 275°
2026-05-08 02:25 33.06491 -96.95672 3004 ft 200 kts 266°
2026-05-08 02:25 33.06174 -96.97283 3025 ft 201 kts 251°
2026-05-08 02:25 33.05698 -96.98870 3033 ft 205 kts 250°
2026-05-08 02:26 33.05205 -97.00475 3025 ft 207 kts 250°
2026-05-08 02:26 33.04534 -97.01951 2979 ft 207 kts 223°
2026-05-08 02:26 33.03246 -97.02605 2843 ft 205 kts 181°
2026-05-08 02:26 33.01831 -97.02514 2588 ft 197 kts 178°
2026-05-08 02:27 33.00524 -97.02537 2322 ft 183 kts 180°
2026-05-08 02:27 32.99280 -97.02555 2079 ft 170 kts 180°
2026-05-08 02:27 32.98153 -97.02563 1864 ft 159 kts 179°
2026-05-08 02:27 32.97098 -97.02568 1698 ft 147 kts 179°
2026-05-08 02:28 32.96079 -97.02573 1478 ft 145 kts 180°
2026-05-08 02:28 32.95086 -97.02578 1288 ft 142 kts 180°
2026-05-08 02:28 32.94097 -97.02590 1100 ft 142 kts 181°
2026-05-08 02:28 32.93105 -97.02602 882 ft 143 kts 179°
2026-05-08 02:29 32.92113 -97.02596 719 ft 140 kts 179°
2026-05-08 02:29 32.91130 -97.02597 583 ft 142 kts 179°
2026-05-08 02:29 32.90228 -97.02604 574 ft 111 kts 181°
2026-05-08 02:29 32.89606 -97.02608 566 ft 67 kts 182°
2026-05-08 02:30 32.89373 -97.02617 568 ft 11 kts 189°
2026-05-08 02:30 32.89294 -97.02641 570 ft 14 kts 195°
2026-05-08 02:30 32.89221 -97.02686 573 ft 6 kts 261°
2026-05-08 02:30 32.89253 -97.02717 572 ft 7 kts 333°
2026-05-08 02:31 32.89335 -97.02763 572 ft 19 kts 329°
2026-05-08 02:31 32.89395 -97.02918 574 ft 23 kts 268°
2026-05-08 02:31 32.89395 -97.03107 575 ft 23 kts 270°
2026-05-08 02:31 32.89395 -97.03251 580 ft 12 kts 269°
2026-05-08 02:32 32.89416 -97.03321 584 ft 7 kts 358°
2026-05-08 02:32 32.89484 -97.03316 585 ft 14 kts 360°
2026-05-08 02:32 32.89594 -97.03315 585 ft 16 kts
2026-05-08 02:32 32.89703 -97.03313 585 ft 17 kts
2026-05-08 02:33 32.89833 -97.03315 585 ft 22 kts 358°
2026-05-08 02:33 32.89991 -97.03313 585 ft 22 kts
2026-05-08 02:33 32.90144 -97.03317 584 ft 22 kts 357°
2026-05-08 02:33 32.90294 -97.03314 584 ft 21 kts 360°
2026-05-08 02:34 32.90434 -97.03316 584 ft 14 kts 339°
2026-05-08 02:34 32.90464 -97.03416 585 ft 12 kts 275°
2026-05-08 02:34 32.90464 -97.03446 586 ft 2 kts 263°
2026-05-08 02:34 32.90460 -97.03463 586 ft 3 kts 262°
2026-05-08 02:35 32.90459 -97.03494 586 ft 1 kts 273°
2026-05-08 02:35 32.90460 -97.03500 586 ft 0 kts 273°